Regional Weather Roundup
Issued by NWS

Home | Current Version | Previous Version | Text Only | Print | Product List | Glossary Off
Versions: 1 2 3 4 5 6 7 8 9 10 11 12 13 14 15 16 17 18 19 20 21 22 23 24 25 26 27 28 29 30 31 32 33 34 35 36 37 38 39 40 41 42 43 44 45 46 47 48 49 50

000
ASUS45 KBOU 010410
RWRCO

WEATHER ROUNDUP FOR COLORADO
NATIONAL WEATHER SERVICE DENVER/BOULDER CO
1000 PM MDT TUE JUN 30 2015

NOTE: "FAIR" INDICATES FEW OR NO CLOUDS BELOW 12000 FEET WITH NO
SIGNIFICANT WEATHER AND/OR OBSTRUCTIONS TO VISIBILITY.

COZ001>005-013-030-031-010500-
...NORTHWEST COLORADO...

CITY           SKY/WX    TMP DP  RH WIND       PRES   REMARKS
CRAIG          CLOUDY    72  47  40 E3        30.19S
HAYDEN         CLOUDY    70  45  40 SE9       30.23S
MEEKER         CLOUDY    70  48  45 CALM      30.21R
MOUNT WERNER   NOT AVBL
STEAMBOAT SPGS CLOUDY    67  48  50 CALM      30.26R
WALDEN         CLOUDY    54  50  87 E13       30.38S
$$

COZ006>008-011-010500-
...WEST CENTRAL VALLEYS...

CITY           SKY/WX    TMP DP  RH WIND       PRES   REMARKS
GRAND JUNCTION CLOUDY    80  44  27 NE3       30.04S
MONTROSE       CLOUDY    81  45  28 S5        30.14R
EAGLE          CLOUDY    72  55  56 CALM      30.26R
RIFLE          CLOUDY    80  42  25 SE5       30.11R
DELTA          CLOUDY    85  47  26 E5        30.09R
NUCLA          CLOUDY    79  43  27 E7        30.17S
$$

COZ017>023-064>068-010500-
...SOUTHWEST COLORADO...

CITY           SKY/WX    TMP DP  RH WIND       PRES   REMARKS
DURANGO        CLOUDY    80  46  30 W7        30.15R
CORTEZ         CLEAR     79  48  33 N5        30.10R
PAGOSA SPRINGS CLOUDY    67  51  57 CALM      30.28R THUNDER
TELLURIDE      CLOUDY    71  38  29 CALM      30.45R
WOLF CREEK PAS NOT AVBL
$$

COZ009-010-012-014-032>034-037-058>063-010500-
...CENTRAL COLORADO...

CITY           SKY/WX    TMP DP  RH WIND       PRES   REMARKS
ASPEN          CLOUDY    67  48  50 S5        30.33R
BUENA VISTA    RAIN      67  49  52 N3        30.39R
COPPER MTN     CLOUDY    55  37  50 W17       30.72S
BERTHOUD PASS  LGT RAIN  41  32  70 W16G24    30.78R
COTTONWOOD PAS NOT AVBL
GUNNISON       CLOUDY    75  39  27 NW5       30.33R
KREMMLING      LGT RAIN  70  45  40 S3        30.35R
LEADVILLE      CLOUDY    59  41  51 NW10      30.53R
MONARCH PASS   CLOUDY    54  41  62 NE21G26   30.79R
SALIDA         CLOUDY    72  48  42 CALM      30.40R
SUNLIGHT       CLOUDY    63  37  39 CALM      30.62R
WILKERSON PASS CLOUDY    55  37  50 S5        30.68S
$$

COZ069>075-010500-
...SAN LUIS VALLEY/SANGRE DE CRISTO MOUNTAINS...

CITY           SKY/WX    TMP DP  RH WIND       PRES   REMARKS
ALAMOSA        CLOUDY    73  47  39 E9        30.25R
LA VETA PASS   PTCLDY    63  37  39 MISG      30.52R
SAGUACHE       CLOUDY    73  41  31 NE14G22   30.32R
$$

COZ035-036-038>040-010500-
...NORTHERN COLORADO FRONT RANGE...

CITY           SKY/WX    TMP DP  RH WIND       PRES   REMARKS
DENVER INTL AP CLOUDY    78  50  37 NW25G33   30.14R
DMNS CITY PARK   N/A     75  50  41 NW6G15    30.15R
AURORA         MOCLDY    74  51  44 NW14      30.20R
FRONT RANGE AP NOT AVBL
ERIE MUNI ARPT CLOUDY    74  52  44 N10G16    30.14R
BOULDER MUN AP CLOUDY    72  54  53 NW8       30.16R
CENTENNIAL     CLOUDY    75  50  41 SW14      30.16R
BROOMFIELD     LGT RAIN  72  55  56 NW14G25   30.18R
FORT COLLINS   CLOUDY    72  57  60 W5        30.18R
LONGMONT       RAIN      72  58  61 NW9       30.15F
$$

COZ041-046-047-076>085-087-088-010500-
...PIKES PEAK/PALMER DIVIDE AND SOUTHERN FOOTHILLS...

CITY           SKY/WX    TMP DP  RH WIND       PRES   REMARKS
COLO. SPRINGS  MOCLDY    76  49  38 N14       30.21R
A. F. ACADEMY  NOT AVBL
ELLICOTT       MOCLDY   N/A N/A N/A N13       30.20R
FALCON         MOCLDY    72  46  39 N7        30.27S
FORT CARSON    MOCLDY    75  51  42 N10       30.18R
LIMON          MOCLDY    72  57  59 W7        30.10R
MONUMENT HILL  CLOUDY    64  50  59 SW7       30.28R
TRINIDAD       CLEAR     71  52  50 S7        30.13R
$$

COZ042>045-048>051-090-091-010500-
...NORTHEAST COLORADO...

CITY           SKY/WX    TMP DP  RH WIND       PRES   REMARKS
GREELEY ARPT   CLOUDY    77  54  44 W17       30.13R
AKRON          MOCLDY    71  57  61 W8        30.04R
BURLINGTON     MOCLDY    76  49  38 SW8       29.98S
WRAY           PTCLDY    77  58  51 W5        29.92S
STERLING       MOCLDY    79  57  47 NW7         N/A
HOLYOKE        PTCLDY    77  64  65 CALM      29.92S
FORT MORGAN    MOCLDY    75  54  46 W12       30.06R
$$

COZ086-089-092>099-010500-
...SOUTHEAST COLORADO...

CITY           SKY/WX    TMP DP  RH WIND       PRES   REMARKS
PUEBLO         CLOUDY    83  48  29 NE6       30.05R
LA JUNTA       CLEAR     79  50  36 E6        30.00R
LAMAR          CLEAR     80  51  36 SE13      29.94S
SPRINGFIELD      N/A     72  46  39 S10       30.04R
$$



USA.gov is the U.S. government's official web portal to all federal, state and local government web resources and services.